Terminal Aerodrome Forecast
Issued by NWS

Home | Current Version | Previous Version | Text Only | Print | Product List | Glossary On
Versions: 1 2 3 4 5 6 7 8 9 10 11 12 13 14 15 16 17 18
607
FTUS43 KSGF 010057 AAB
TAFJLN
TAF AMD
KJLN 010057Z 0101/0124 06010KT P6SM VCSH SCT008 BKN100
     FM010200 04004KT P6SM OVC100
     FM010800 05004KT P6SM OVC025
     FM011100 VRB03KT 4SM BR OVC015
     FM011500 05007KT P6SM SCT100=

USA.gov is the U.S. government's official web portal to all federal, state and local government web resources and services.